Regional Weather Roundup
Issued by NWS

Home | Current Version | Previous Version | Graphics & Text | Print | Product List | Glossary On
Versions: 1 2 3 4 5 6 7 8 9 10 11 12 13 14 15 16 17 18 19 20 21 22 23 24 25 26 27 28 29 30 31 32 33 34 35 36 37 38 39 40 41 42 43 44 45 46 47 48 49 50
000
ASUS43 KLOT 290900
RWRIL

ILLINOIS REGIONAL WEATHER ROUNDUP
NATIONAL WEATHER SERVICE CHICAGO/ROMEOVILLE IL
400 AM CDT SAT AUG 29 2015

NOTE: "FAIR" INDICATES FEW OR NO CLOUDS BELOW 12,000 FEET WITH NO
SIGNIFICANT WEATHER AND/OR OBSTRUCTIONS TO VISIBILITY.

* THESE STATIONS ARE NOT UNDER NWS QUALITY CONTROL. THEY ALSO MAY NOT
  REPORT WEATHER SUCH AS PRECIPITATION OR FOG.

ILZ001-002-007-009-015-016-024-291000-
NORTHWEST ILLINOIS

CITY           SKY/WX    TMP DP  RH WIND       PRES   REMARKS
MOLINE         CLOUDY    68  62  81 S6        29.95S
STERLING*      CLOUDY    64  61  88 SE10      29.97F
$$

ILZ003-004-008-010-011-017-018-291000-
NORTH CENTRAL ILLINOIS

CITY           SKY/WX    TMP DP  RH WIND       PRES   REMARKS
ROCKFORD       RAIN      64  61  90 S12       30.04S FOG
FREEPORT*      RAIN      62  61  97 SE12      30.01F
$$

ILZ005-006-012>014-019>023-291000-
NORTHEAST ILLINOIS

CITY           SKY/WX    TMP DP  RH WIND       PRES   REMARKS
CHICAGO-OHARE  LGT RAIN  65  61  87 S8        30.03F
CHICAGO-MIDWAY LGT RAIN  68  60  75 SE6       30.04F
AURORA         RAIN      64  62  93 SE7       30.04F FOG
LANSING*       CLOUDY    64  59  85 SE3       30.05F
WAUKEGAN       LGT RAIN  65  63  93 S7        30.03F
DUPAGE AIRPORT RAIN      64  61  90 S7        30.03F FOG
WHEELING       LGT RAIN  65  62  90 CALM      30.04F
NORTHERLY ISL    N/A     64  59  83 S2          N/A
$$

LMZ740>746-291000-
SOUTHERN LAKE MICHIGAN

STATION/POSITION SKY/WX   TEMP    WIND        PRES    VSBY  WAVE
                          AIR SEA DIR/SP/G                  HT/PER
                          (F)     (DEG/KT/KT) (MB)    (MI)  (FT/S)
SOUTHERN BUOY              68 68  100/ 12/ 14 1017.4F         1/ 3
WILMETTE HARBOR            60 56  300/  6/  8   N/A           1/ 3
HARRISON CRIB              68     160/ 10/ 11   N/A
BURNHAM HARBOR             64     140/  3/  5   N/A
BURNS HARBOR               69     140/  9/ 13 1018.3F
MICHIGAN CITY              66     120/  7/  9   N/A
MICHIGAN CITY 6N           68 71  160/ 10/ 12   N/A           1
ST. JOSEPH                 69 72  190/ 10/ 12   N/A           1
$$

ILZ025>027-034>036-040-047-049-050-058-095>099-291000-
WEST-CENTRAL ILLINOIS

CITY           SKY/WX    TMP DP  RH WIND       PRES   REMARKS
QUINCY         CLOUDY    69  62  78 S9        29.97F
$$

ILZ028>032-037-038-041>044-048-051>054-059>061-291000-
CENTRAL ILLINOIS

CITY           SKY/WX    TMP DP  RH WIND       PRES   REMARKS
DECATUR        CLOUDY    68  60  75 S5        30.04F
PEORIA         CLOUDY    68  62  81 S9        30.00F
SPRINGFIELD    CLOUDY    68  64  87 S9        30.01F
TAYLORVILLE    NOT AVBL
$$

ILZ033-039-045-046-055>057-062-063-291000-
EAST-CENTRAL ILLINOIS

CITY           SKY/WX    TMP DP  RH WIND       PRES   REMARKS
CHAMPAIGN      CLOUDY    65  60  84 SE6       30.05F
MATTOON        HAZE      66  60  81 S5        30.04F VSB 1/2
$$

ILZ079-100>102-291000-
SOUTHWEST ILLINOIS

CITY           SKY/WX    TMP DP  RH WIND       PRES   REMARKS
CAHOKIA*       CLOUDY    69  64  84 SE5       30.02F
SPARTA*        CLOUDY    67  65  93 CALM      30.04S
$$

ILZ064>066-069>071-074>076-080>082-084>086-088>090-092>094-291000-
SOUTH-CENTRAL ILLINOIS

CITY           SKY/WX    TMP DP  RH WIND       PRES   REMARKS
CARBONDALE     CLOUDY    67  65  93 SE3       30.03R
MT. VERNON     CLOUDY    66  61  82 CALM      30.05S
$$

ILZ067-068-072-073-078-083-087-091-291000-
SOUTHEAST ILLINOIS

CITY           SKY/WX    TMP DP  RH WIND       PRES   REMARKS
LAWRENCEVILLE  CLOUDY    67  63  87 CALM      30.06R
FLORA*         CLOUDY    67  62  84 CALM      30.05S
ROBINSON*      CLOUDY    64  62  95 CALM      30.07R
$$

ABBREVIATIONS USED IN REMARKS
   TC - TEMPERATURE IN CELSIUS
  WCI - WIND CHILL INDEX
   HX - HEAT INDEX
  VSB - VISIBILITY
$$



USA.gov is the U.S. government's official web portal to all federal, state and local government web resources and services.